Home   Weather   Düren   Past weeks

Flag for Germany Past Weather in Düren, North Rhine-Westphalia, Germany — Yesterday and Last 2 Weeks

Now
59 °F

Passing clouds.


Feels Like: 59 °F
Forecast: 55 / 64 °F
Wind: 5 mph from South

Location: Noervenich

Current Time: Sep 29, 2016 at 8:54:45 AM

Latest Report: Sep 29, 2016 at 8:20 AM


Visibility: N/A

Pressure: 30.09 "Hg

Humidity: 82%

Dew Point: 54 °F

Location of DürenLocation

Past Weather in Düren — Graph

°F

Düren Temperature Yesterday

Maximum temperature yesterday: 73 °F (at 5:20 PM)
Minimum temperature yesterday: 55 °F (at 3:20 AM)
Average temperature yesterday: 63 °F

High & Low Weather Summary for the Past Weeks

 TemperatureHumidityPressure
High90 °F (Sep 14, 4:20 PM)100% (Sep 18, 5:20 AM)30.33 "Hg (Sep 18, 5:20 AM)
Low46 °F (Sep 22, 2:20 AM)27% (Sep 14, 4:20 PM)29.80 "Hg (Sep 15, 2:20 PM)
Average62 °F70%30.10 "Hg
* Reported Sep 14 7:20 AM — Sep 29 7:20 AM, Düren, Weather by CustomWeather, © 2016

Note: Actual official high and low records may vary slightly from our data, if they occured in-between our weather recording intervals... More about our weather records

Advertising

Düren Weather History for the Previous 24 Hours

Scroll right to see more
 ConditionsComfort  
Time TempWeatherWind HumidityBarometerVisibility
7:20 AM
Thu, Sep 29
59 °FPassing clouds.6 mph82%30.12 "HgN/A
6:20 AM57 °FPassing clouds.5 mph88%30.15 "HgN/A
5:20 AM59 °FPassing clouds.3 mph82%30.15 "HgN/A
4:20 AM61 °FPassing clouds.7 mph77%30.18 "HgN/A
3:20 AM63 °FPassing clouds.8 mph73%30.18 "HgN/A
2:20 AM59 °FPassing clouds.6 mph82%30.21 "HgN/A
1:20 AM57 °FPassing clouds.3 mph88%30.21 "HgN/A
12:20 AM61 °FPassing clouds.2 mph77%30.21 "HgN/A
11:20 PM
Wed, Sep 28
63 °FPassing clouds.6 mph73%30.24 "HgN/A
10:20 PM63 °FPassing clouds.5 mph73%30.24 "HgN/A
9:20 PM64 °FPassing clouds.5 mph68%30.24 "HgN/A
8:20 PM66 °FPassing clouds.5 mph64%30.27 "HgN/A
7:20 PM68 °FPassing clouds.7 mph56%30.27 "HgN/A
6:20 PM70 °FPartly sunny.10 mph53%30.27 "HgN/A
5:20 PM73 °FPassing clouds.16 mph44%30.27 "HgN/A
4:20 PM72 °FPartly sunny.14 mph50%30.27 "HgN/A
3:20 PM72 °FPartly sunny.14 mph50%30.27 "HgN/A
2:20 PM70 °FPartly sunny.17 mph57%30.27 "HgN/A
1:20 PM68 °FPartly sunny.18 mph60%30.30 "HgN/A
12:20 PM66 °FPartly sunny.17 mph68%30.30 "HgN/A
11:20 AM64 °FBroken clouds.13 mph73%30.30 "HgN/A
10:20 AM64 °FPartly sunny.10 mph64%30.30 "HgN/A
9:20 AM63 °FPartly sunny.2 mph56%30.30 "HgN/A
8:20 AM61 °FScattered clouds.6 mph55%30.27 "HgN/A
Weather by CustomWeather, © 2016

See weather overviewHow to use our weather pages